Wetterdaten: aktuell Montag, 17.12.2018 10:44
Datum Zeit Temp. I. Temp. 2m Temp. 5cm Feuchte I. Feuchte 2m Luftdruck Regen Wind Richtung Richtung Taupunkt Windchill Windben
17.12.2018 10:44 22,1 C 0,0 C 0,5 C 32 % 84 % 1023,0 hPa 0,0 l/m 0,8 km/h (0 Bft) NW 315 -2,4 C 0,0 C 0,0 km/h (0 Bft)
17.12.2018 10:42 22,1 C 0,0 C 0,5 C 32 % 84 % 1023,0 hPa 0,0 l/m 0,8 km/h (0 Bft) NW 315 -2,4 C 0,0 C 3,3 km/h (1 Bft)
17.12.2018 10:40 22,1 C 0,2 C 0,5 C 32 % 84 % 1023,0 hPa 0,0 l/m 0,8 km/h (0 Bft) NW 315 -2,2 C 0,2 C 3,5 km/h (1 Bft)
17.12.2018 10:38 22,1 C 0,2 C 0,6 C 32 % 84 % 1022,9 hPa 0,0 l/m 0,5 km/h (0 Bft) NW 315 -2,2 C 0,2 C 3,5 km/h (1 Bft)
17.12.2018 10:36 22,1 C 0,2 C 0,6 C 32 % 84 % 1022,9 hPa 0,0 l/m 0,5 km/h (0 Bft) NW 315 -2,2 C 0,2 C 3,5 km/h (1 Bft)
17.12.2018 10:34 22,1 C 0,2 C 0,5 C 32 % 84 % 1022,9 hPa 0,0 l/m 0,3 km/h (0 Bft) NW 315 -2,2 C 0,2 C 1,9 km/h (1 Bft)
17.12.2018 10:32 22,1 C 0,2 C 0,5 C 32 % 84 % 1022,9 hPa 0,0 l/m 0,2 km/h (0 Bft) W-NW 292 -2,2 C 0,2 C 1,9 km/h (1 Bft)
17.12.2018 10:30 22,2 C 0,2 C 0,5 C 32 % 84 % 1022,9 hPa 0,0 l/m 0,2 km/h (0 Bft) NW 315 -2,2 C 0,2 C 0,0 km/h (0 Bft)
17.12.2018 10:28 22,1 C 0,0 C 0,4 C 32 % 85 % 1022,9 hPa 0,0 l/m 0,3 km/h (0 Bft) W-SW 247 -2,2 C 0,0 C 0,0 km/h (0 Bft)
17.12.2018 10:26 22,1 C 0,0 C 0,4 C 32 % 85 % 1022,9 hPa 0,0 l/m 0,6 km/h (0 Bft) W 270 -2,2 C 0,0 C 2,7 km/h (1 Bft)
17.12.2018 10:24 22,2 C 0,0 C 0,4 C 32 % 85 % 1022,9 hPa 0,0 l/m 0,5 km/h (0 Bft) W-NW 292 -2,2 C 0,0 C 2,7 km/h (1 Bft)
17.12.2018 10:22 22,2 C -0,1 C 0,3 C 32 % 85 % 1022,9 hPa 0,0 l/m 0,5 km/h (0 Bft) S 180 -2,3 C -0,1 C 0,0 km/h (0 Bft)
17.12.2018 10:20 22,2 C -0,1 C 0,3 C 32 % 85 % 1022,9 hPa 0,0 l/m 0,5 km/h (0 Bft) S 180 -2,3 C -0,1 C 0,0 km/h (0 Bft)
17.12.2018 10:18 22,2 C -0,2 C 0,3 C 32 % 85 % 1023,0 hPa 0,0 l/m 0,0 km/h (0 Bft) S 180 -2,4 C -0,2 C 0,0 km/h (0 Bft)
17.12.2018 10:16 22,2 C -0,2 C 0,4 C 32 % 85 % 1023,0 hPa 0,0 l/m 0,0 km/h (0 Bft) S 180 -2,4 C -0,2 C 0,0 km/h (0 Bft)
17.12.2018 10:14 22,2 C -0,2 C 0,3 C 32 % 85 % 1023,0 hPa 0,0 l/m 0,0 km/h (0 Bft) S-SW 202 -2,4 C -0,2 C 0,0 km/h (0 Bft)
17.12.2018 10:12 22,2 C -0,4 C 0,4 C 32 % 85 % 1023,0 hPa 0,0 l/m 0,0 km/h (0 Bft) S-SW 202 -2,6 C -0,4 C 0,0 km/h (0 Bft)
17.12.2018 10:10 22,2 C -0,4 C 0,4 C 32 % 85 % 1023,0 hPa 0,0 l/m 0,0 km/h (0 Bft) NW 315 -2,6 C -0,4 C 0,0 km/h (0 Bft)
17.12.2018 10:08 22,2 C -0,4 C 0,4 C 32 % 85 % 1023,0 hPa 0,0 l/m 0,3 km/h (0 Bft) NW 315 -2,6 C -0,4 C 0,0 km/h (0 Bft)
17.12.2018 10:06 22,2 C -0,4 C 0,4 C 32 % 85 % 1023,0 hPa 0,0 l/m 0,3 km/h (0 Bft) N-NW 337 -2,6 C -0,4 C 0,0 km/h (0 Bft)
17.12.2018 10:04 22,2 C -0,4 C 0,4 C 32 % 85 % 1023,0 hPa 0,0 l/m 0,3 km/h (0 Bft) N-NW 337 -2,6 C -0,4 C 0,0 km/h (0 Bft)
17.12.2018 10:02 22,2 C -0,4 C 0,4 C 32 % 85 % 1023,0 hPa 0,0 l/m 0,3 km/h (0 Bft) N-NW 337 -2,6 C -0,4 C 0,0 km/h (0 Bft)
17.12.2018 10:00 22,2 C -0,4 C 0,1 C 32 % 85 % 1023,0 hPa 0,0 l/m 0,3 km/h (0 Bft) N-NO 22 -2,6 C -0,4 C 0,0 km/h (0 Bft)
17.12.2018 09:58 22,2 C -0,4 C 0,1 C 32 % 85 % 1022,9 hPa 0,0 l/m 0,0 km/h (0 Bft) SO 135 -2,6 C -0,4 C 0,0 km/h (0 Bft)
17.12.2018 09:56 22,2 C -0,4 C 0,0 C 32 % 85 % 1022,9 hPa 0,0 l/m 0,0 km/h (0 Bft) SO 135 -2,6 C -0,4 C 0,0 km/h (0 Bft)
17.12.2018 09:54 22,2 C -0,4 C 0,1 C 32 % 85 % 1022,9 hPa 0,0 l/m 0,0 km/h (0 Bft) S 180 -2,6 C -0,4 C 0,0 km/h (0 Bft)
17.12.2018 09:52 22,2 C -0,4 C 0,1 C 33 % 85 % 1022,9 hPa 0,0 l/m 0,0 km/h (0 Bft) NO 45 -2,6 C -0,4 C 0,0 km/h (0 Bft)
17.12.2018 09:50 22,2 C -0,4 C 0,1 C 33 % 85 % 1022,9 hPa 0,0 l/m 0,0 km/h (0 Bft) NO 45 -2,6 C -0,4 C 0,0 km/h (0 Bft)
17.12.2018 09:48 22,2 C -0,5 C 0,3 C 33 % 85 % 1022,9 hPa 0,0 l/m 0,0 km/h (0 Bft) NO 45 -2,7 C -0,5 C 0,0 km/h (0 Bft)
17.12.2018 09:46 22,1 C -0,5 C 0,3 C 33 % 85 % 1022,9 hPa 0,0 l/m 0,0 km/h (0 Bft) NO 45 -2,7 C -0,5 C 0,0 km/h (0 Bft)
17.12.2018 09:44 22,1 C -0,5 C 0,3 C 33 % 85 % 1022,9 hPa 0,0 l/m 0,3 km/h (0 Bft) N-NO 22 -2,7 C -0,5 C 0,0 km/h (0 Bft)
17.12.2018 09:42 22,1 C -0,6 C 0,1 C 33 % 85 % 1022,9 hPa 0,0 l/m 0,5 km/h (0 Bft) N-NO 22 -2,8 C -0,6 C 0,0 km/h (0 Bft)
17.12.2018 09:40 22,0 C -0,6 C -0,2 C 33 % 85 % 1022,9 hPa 0,0 l/m 0,5 km/h (0 Bft) N-NO 22 -2,8 C -0,6 C 0,0 km/h (0 Bft)
17.12.2018 09:38 22,0 C -0,6 C -0,2 C 33 % 85 % 1021,6 hPa 0,0 l/m 0,8 km/h (0 Bft) S 180 -2,8 C -0,6 C 0,0 km/h (0 Bft)
17.12.2018 09:36 22,0 C -0,6 C -0,1 C 33 % 85 % 1021,6 hPa 0,0 l/m 0,8 km/h (0 Bft) S 180 -2,8 C -0,6 C 3,3 km/h (1 Bft)
17.12.2018 09:34 22,0 C -0,6 C -0,2 C 33 % 85 % 1021,6 hPa 0,0 l/m 0,5 km/h (0 Bft) S-SO 157 -2,8 C -0,6 C 3,3 km/h (1 Bft)
17.12.2018 09:32 22,0 C -0,6 C -0,1 C 33 % 85 % 1021,6 hPa 0,0 l/m 0,3 km/h (0 Bft) S-SW 202 -2,8 C -0,6 C 0,0 km/h (0 Bft)
17.12.2018 09:30 21,9 C -0,6 C -0,1 C 33 % 85 % 1021,6 hPa 0,0 l/m 0,3 km/h (0 Bft) SO 135 -2,8 C -0,6 C 2,1 km/h (1 Bft)
17.12.2018 09:28 21,9 C -0,6 C -0,1 C 33 % 85 % 1021,6 hPa 0,0 l/m 0,3 km/h (0 Bft) O-SO 112 -2,8 C -0,6 C 2,9 km/h (1 Bft)
17.12.2018 09:26 21,8 C -0,6 C 0,1 C 33 % 85 % 1021,6 hPa 0,0 l/m 0,5 km/h (0 Bft) SO 135 -2,8 C -0,6 C 2,9 km/h (1 Bft)
17.12.2018 09:24 21,8 C -0,7 C -0,1 C 33 % 85 % 1021,6 hPa 0,0 l/m 1,1 km/h (1 Bft) NO 45 -2,9 C -0,7 C 0,0 km/h (0 Bft)
17.12.2018 09:22 21,8 C -0,7 C -0,1 C 33 % 85 % 1021,6 hPa 0,0 l/m 1,6 km/h (1 Bft) O-SO 112 -2,9 C -0,7 C 0,0 km/h (0 Bft)
17.12.2018 09:20 21,8 C -0,9 C -0,1 C 33 % 85 % 1021,6 hPa 0,0 l/m 1,6 km/h (1 Bft) O-SO 112 -3,1 C -0,9 C 3,1 km/h (1 Bft)
17.12.2018 09:18 21,7 C -0,9 C 0,0 C 33 % 85 % 1021,6 hPa 0,0 l/m 1,9 km/h (1 Bft) O 90 -3,1 C -0,9 C 3,1 km/h (1 Bft)
17.12.2018 09:16 21,7 C -0,9 C 0,0 C 33 % 85 % 1021,6 hPa 0,0 l/m 1,9 km/h (1 Bft) O 90 -3,1 C -0,9 C 3,7 km/h (1 Bft)
17.12.2018 09:14 21,7 C -0,9 C 0,0 C 33 % 85 % 1021,6 hPa 0,0 l/m 1,9 km/h (1 Bft) O-SO 112 -3,1 C -0,9 C 3,7 km/h (1 Bft)
17.12.2018 09:12 21,7 C -0,9 C 0,0 C 33 % 85 % 1021,6 hPa 0,0 l/m 1,3 km/h (1 Bft) O 90 -3,1 C -0,9 C 2,9 km/h (1 Bft)
17.12.2018 09:10 21,7 C -0,9 C 0,0 C 33 % 85 % 1021,6 hPa 0,0 l/m 1,3 km/h (1 Bft) O 90 -3,1 C -0,9 C 2,5 km/h (1 Bft)
17.12.2018 09:08 21,6 C -1,0 C 0,0 C 33 % 85 % 1021,6 hPa 0,0 l/m 1,6 km/h (1 Bft) O 90 -3,2 C -1,0 C 3,9 km/h (1 Bft)
17.12.2018 09:06 21,6 C -1,0 C -0,1 C 33 % 85 % 1021,6 hPa 0,0 l/m 1,8 km/h (1 Bft) SO 135 -3,2 C -1,0 C 3,9 km/h (1 Bft)
17.12.2018 09:04 21,7 C -1,0 C -0,2 C 33 % 85 % 1021,6 hPa 0,0 l/m 1,8 km/h (1 Bft) O 90 -3,2 C -1,0 C 3,5 km/h (1 Bft)
17.12.2018 09:02 21,7 C -1,0 C -0,3 C 33 % 85 % 1021,6 hPa 0,0 l/m 1,9 km/h (1 Bft) O-NO 67 -3,2 C -1,0 C 0,0 km/h (0 Bft)
17.12.2018 09:00 21,7 C -1,0 C -0,3 C 33 % 85 % 1021,6 hPa 0,0 l/m 1,9 km/h (1 Bft) SO 135 -3,2 C -1,0 C 3,1 km/h (1 Bft)
17.12.2018 08:58 21,7 C -1,0 C -0,3 C 33 % 85 % 1021,3 hPa 0,0 l/m 1,4 km/h (1 Bft) O 90 -3,2 C -1,0 C 0,0 km/h (0 Bft)
17.12.2018 08:56 21,7 C -1,1 C -0,3 C 33 % 85 % 1021,3 hPa 0,0 l/m 1,4 km/h (1 Bft) O 90 -3,3 C -1,1 C 3,1 km/h (1 Bft)
17.12.2018 08:54 21,7 C -1,1 C -0,4 C 33 % 85 % 1021,3 hPa 0,0 l/m 1,6 km/h (1 Bft) O 90 -3,3 C -1,1 C 3,1 km/h (1 Bft)
17.12.2018 08:52 21,7 C -1,1 C -0,4 C 33 % 85 % 1021,3 hPa 0,0 l/m 1,3 km/h (1 Bft) O 90 -3,3 C -1,1 C 3,1 km/h (1 Bft)
17.12.2018 08:50 21,7 C -1,1 C -0,4 C 33 % 84 % 1021,3 hPa 0,0 l/m 1,0 km/h (0 Bft) SO 135 -3,4 C -1,1 C 0,0 km/h (0 Bft)
17.12.2018 08:48 21,7 C -1,1 C -0,5 C 33 % 84 % 1021,3 hPa 0,0 l/m 1,4 km/h (1 Bft) SO 135 -3,4 C -1,1 C 3,1 km/h (1 Bft)
17.12.2018 08:46 21,7 C -1,1 C -0,5 C 33 % 84 % 1021,3 hPa 0,0 l/m 1,4 km/h (1 Bft) O-SO 112 -3,4 C -1,1 C 3,1 km/h (1 Bft)
17.12.2018 08:44 21,7 C -1,1 C -0,4 C 33 % 84 % 1021,3 hPa 0,0 l/m 1,3 km/h (1 Bft) O-SO 112 -3,4 C -1,1 C 3,1 km/h (1 Bft)
17.12.2018 08:42 21,8 C -1,3 C -0,4 C 33 % 84 % 1021,3 hPa 0,0 l/m 1,3 km/h (1 Bft) NO 45 -3,6 C -1,3 C 0,0 km/h (0 Bft)
17.12.2018 08:40 21,8 C -1,3 C -0,6 C 33 % 84 % 1021,3 hPa 0,0 l/m 1,4 km/h (1 Bft) O 90 -3,6 C -1,3 C 2,3 km/h (1 Bft)
17.12.2018 08:38 21,8 C -1,3 C -0,6 C 33 % 84 % 1021,1 hPa 0,0 l/m 1,3 km/h (1 Bft) S-SO 157 -3,6 C -1,3 C 2,3 km/h (1 Bft)
17.12.2018 08:36 21,8 C -1,3 C -0,8 C 33 % 84 % 1021,1 hPa 0,0 l/m 1,3 km/h (1 Bft) S-SO 157 -3,6 C -1,3 C 2,9 km/h (1 Bft)
17.12.2018 08:34 21,8 C -1,3 C -0,8 C 33 % 84 % 1021,1 hPa 0,0 l/m 1,3 km/h (1 Bft) S 180 -3,6 C -1,3 C 3,5 km/h (1 Bft)
17.12.2018 08:32 21,8 C -1,3 C -0,8 C 33 % 84 % 1021,1 hPa 0,0 l/m 1,0 km/h (0 Bft) S 180 -3,6 C -1,3 C 3,5 km/h (1 Bft)
17.12.2018 08:30 21,8 C -1,4 C -0,8 C 33 % 84 % 1021,1 hPa 0,0 l/m 0,8 km/h (0 Bft) S 180 -3,7 C -1,4 C 2,7 km/h (1 Bft)
17.12.2018 08:28 21,9 C -1,4 C -0,8 C 33 % 84 % 1021,1 hPa 0,0 l/m 0,8 km/h (0 Bft) S-SO 157 -3,7 C -1,4 C 2,7 km/h (1 Bft)
17.12.2018 08:26 21,9 C -1,4 C -0,8 C 33 % 84 % 1021,1 hPa 0,0 l/m 0,6 km/h (0 Bft) S 180 -3,7 C -1,4 C 3,1 km/h (1 Bft)
17.12.2018 08:24 21,9 C -1,4 C -0,8 C 33 % 84 % 1021,1 hPa 0,0 l/m 0,6 km/h (0 Bft) S 180 -3,7 C -1,4 C 3,1 km/h (1 Bft)
17.12.2018 08:22 21,9 C -1,4 C -0,8 C 33 % 84 % 1021,1 hPa 0,0 l/m 0,5 km/h (0 Bft) SO 135 -3,7 C -1,4 C 2,3 km/h (1 Bft)
17.12.2018 08:20 21,9 C -1,4 C -0,8 C 33 % 84 % 1021,1 hPa 0,0 l/m 0,3 km/h (0 Bft) S 180 -3,7 C -1,4 C 2,3 km/h (1 Bft)
17.12.2018 08:18 22,0 C -1,4 C -0,9 C 33 % 84 % 1020,8 hPa 0,0 l/m 0,2 km/h (0 Bft) S-SW 202 -3,7 C -1,4 C 2,1 km/h (1 Bft)
17.12.2018 08:16 22,0 C -1,4 C -0,9 C 33 % 84 % 1020,8 hPa 0,0 l/m 0,2 km/h (0 Bft) S-SW 202 -3,7 C -1,4 C 2,1 km/h (1 Bft)
17.12.2018 08:14 22,0 C -1,4 C -0,9 C 33 % 84 % 1020,8 hPa 0,0 l/m 0,0 km/h (0 Bft) S 180 -3,7 C -1,4 C 0,0 km/h (0 Bft)
17.12.2018 08:12 22,0 C -1,4 C -0,9 C 33 % 84 % 1020,8 hPa 0,0 l/m 0,0 km/h (0 Bft) S-SW 202 -3,7 C -1,4 C 0,0 km/h (0 Bft)
17.12.2018 08:10 22,0 C -1,4 C -0,8 C 33 % 84 % 1020,8 hPa 0,0 l/m 0,2 km/h (0 Bft) S-SW 202 -3,7 C -1,4 C 0,0 km/h (0 Bft)
17.12.2018 08:08 22,0 C -1,4 C -0,8 C 33 % 84 % 1020,8 hPa 0,0 l/m 0,3 km/h (0 Bft) S-SW 202 -3,7 C -1,4 C 0,0 km/h (0 Bft)
17.12.2018 08:06 22,0 C -1,4 C -0,8 C 33 % 84 % 1020,8 hPa 0,0 l/m 0,3 km/h (0 Bft) S-SW 202 -3,7 C -1,4 C 0,0 km/h (0 Bft)
17.12.2018 08:04 22,0 C -1,4 C -0,8 C 33 % 84 % 1020,8 hPa 0,0 l/m 0,3 km/h (0 Bft) S-SW 202 -3,7 C -1,4 C 2,3 km/h (1 Bft)
17.12.2018 08:02 22,0 C -1,4 C -0,9 C 33 % 84 % 1020,8 hPa 0,0 l/m 0,3 km/h (0 Bft) S-SW 202 -3,7 C -1,4 C 2,3 km/h (1 Bft)
17.12.2018 08:00 22,0 C -1,4 C -0,9 C 33 % 84 % 1020,8 hPa 0,0 l/m 0,2 km/h (0 Bft) S-SW 202 -3,7 C -1,4 C 2,1 km/h (1 Bft)
17.12.2018 07:58 22,1 C -1,5 C -0,9 C 33 % 84 % 1020,5 hPa 0,0 l/m 0,5 km/h (0 Bft) O 90 -3,8 C -1,5 C 0,0 km/h (0 Bft)
17.12.2018 07:56 22,1 C -1,5 C -0,9 C 33 % 84 % 1020,5 hPa 0,0 l/m 0,5 km/h (0 Bft) O 90 -3,8 C -1,5 C 0,0 km/h (0 Bft)
17.12.2018 07:54 22,1 C -1,5 C -0,9 C 33 % 84 % 1020,5 hPa 0,0 l/m 0,8 km/h (0 Bft) O 90 -3,8 C -1,5 C 0,0 km/h (0 Bft)
17.12.2018 07:52 22,1 C -1,5 C -1,0 C 33 % 84 % 1020,5 hPa 0,0 l/m 1,1 km/h (1 Bft) N-NW 337 -3,8 C -1,5 C 0,0 km/h (0 Bft)
17.12.2018 07:50 22,1 C -1,5 C -1,0 C 33 % 84 % 1020,5 hPa 0,0 l/m 1,3 km/h (1 Bft) N-NO 22 -3,8 C -1,5 C 0,0 km/h (0 Bft)
17.12.2018 07:48 22,2 C -1,5 C -0,9 C 33 % 84 % 1020,5 hPa 0,0 l/m 1,3 km/h (1 Bft) O 90 -3,8 C -1,5 C 3,7 km/h (1 Bft)
17.12.2018 07:46 22,2 C -1,5 C -0,9 C 33 % 84 % 1020,5 hPa 0,0 l/m 1,8 km/h (1 Bft) O 90 -3,8 C -1,5 C 3,7 km/h (1 Bft)
17.12.2018 07:44 22,2 C -1,5 C -0,9 C 33 % 84 % 1020,5 hPa 0,0 l/m 1,8 km/h (1 Bft) O 90 -3,8 C -1,5 C 4,1 km/h (1 Bft)
17.12.2018 07:42 22,2 C -1,5 C -0,9 C 33 % 84 % 1020,5 hPa 0,0 l/m 1,6 km/h (1 Bft) O-SO 112 -3,8 C -1,5 C 4,1 km/h (1 Bft)
17.12.2018 07:40 22,2 C -1,5 C -0,9 C 33 % 84 % 1020,5 hPa 0,0 l/m 1,9 km/h (1 Bft) O 90 -3,8 C -1,5 C 5,8 km/h (2 Bft)
17.12.2018 07:38 22,2 C -1,5 C -0,9 C 33 % 84 % 1020,5 hPa 0,0 l/m 2,3 km/h (1 Bft) O 90 -3,8 C -1,5 C 5,8 km/h (2 Bft)
17.12.2018 07:36 22,2 C -1,5 C -0,9 C 33 % 84 % 1020,5 hPa 0,0 l/m 2,3 km/h (1 Bft) O 90 -3,8 C -1,5 C 5,8 km/h (2 Bft)
17.12.2018 07:34 22,2 C -1,5 C -0,9 C 33 % 84 % 1020,5 hPa 0,0 l/m 1,6 km/h (1 Bft) NO 45 -3,8 C -1,5 C 2,5 km/h (1 Bft)
17.12.2018 07:32 22,3 C -1,5 C -0,9 C 33 % 84 % 1020,5 hPa 0,0 l/m 1,8 km/h (1 Bft) O 90 -3,8 C -1,5 C 5,2 km/h (1 Bft)
17.12.2018 07:30 22,3 C -1,6 C -1,0 C 33 % 84 % 1020,5 hPa 0,0 l/m 1,1 km/h (1 Bft) O 90 -3,9 C -1,6 C 5,2 km/h (1 Bft)
17.12.2018 07:28 22,3 C -1,6 C -1,0 C 33 % 84 % 1020,5 hPa 0,0 l/m 0,8 km/h (0 Bft) O 90 -3,9 C -1,6 C 2,5 km/h (1 Bft)
17.12.2018 07:26 22,2 C -1,6 C -1,0 C 33 % 84 % 1020,5 hPa 0,0 l/m 0,3 km/h (0 Bft) SO 135 -3,9 C -1,6 C 1,9 km/h (1 Bft)
17.12.2018 07:24 22,2 C -1,6 C -1,2 C 33 % 84 % 1020,5 hPa 0,0 l/m 0,3 km/h (0 Bft) O 90 -3,9 C -1,6 C 0,0 km/h (0 Bft)
17.12.2018 07:22 22,2 C -1,6 C -1,3 C 33 % 84 % 1020,5 hPa 0,0 l/m 0,0 km/h (0 Bft) S 180 -3,9 C -1,6 C 0,0 km/h (0 Bft)
17.12.2018 07:20 22,4 C -1,6 C -1,2 C 33 % 84 % 1020,5 hPa 0,0 l/m 0,0 km/h (0 Bft) SO 135 -3,9 C -1,6 C 0,0 km/h (0 Bft)
17.12.2018 07:18 22,4 C -1,6 C -1,2 C 33 % 84 % 1020,1 hPa 0,0 l/m 0,2 km/h (0 Bft) O-SO 112 -3,9 C -1,6 C 0,0 km/h (0 Bft)
17.12.2018 07:16 22,4 C -1,6 C -1,0 C 33 % 84 % 1020,1 hPa 0,0 l/m 0,2 km/h (0 Bft) O-SO 112 -3,9 C -1,6 C 0,0 km/h (0 Bft)
17.12.2018 07:14 22,4 C -1,6 C -1,2 C 33 % 84 % 1020,1 hPa 0,0 l/m 0,2 km/h (0 Bft) O 90 -3,9 C -1,6 C 0,0 km/h (0 Bft)
17.12.2018 07:12 22,4 C -1,6 C -1,3 C 33 % 84 % 1020,1 hPa 0,0 l/m 0,2 km/h (0 Bft) S-SW 202 -3,9 C -1,6 C 0,0 km/h (0 Bft)
17.12.2018 07:10 22,4 C -1,6 C -1,3 C 33 % 83 % 1020,1 hPa 0,0 l/m 0,2 km/h (0 Bft) S 180 -4,1 C -1,6 C 0,0 km/h (0 Bft)
17.12.2018 07:08 22,4 C -1,6 C -1,2 C 33 % 83 % 1020,1 hPa 0,0 l/m 0,2 km/h (0 Bft) SO 135 -4,1 C -1,6 C 0,0 km/h (0 Bft)
17.12.2018 07:06 22,4 C -1,6 C -1,4 C 33 % 83 % 1020,1 hPa 0,0 l/m 0,2 km/h (0 Bft) SO 135 -4,1 C -1,6 C 0,0 km/h (0 Bft)
17.12.2018 07:04 22,4 C -1,6 C -1,4 C 33 % 83 % 1020,1 hPa 0,0 l/m 0,2 km/h (0 Bft) SO 135 -4,1 C -1,6 C 0,0 km/h (0 Bft)
17.12.2018 07:02 22,4 C -1,6 C -1,4 C 33 % 83 % 1020,1 hPa 0,0 l/m 0,2 km/h (0 Bft) S-SW 202 -4,1 C -1,6 C 0,0 km/h (0 Bft)
17.12.2018 07:00 22,4 C -1,6 C -1,4 C 33 % 83 % 1020,1 hPa 0,0 l/m 0,0 km/h (0 Bft) W-SW 247 -4,1 C -1,6 C 0,0 km/h (0 Bft)
17.12.2018 06:58 22,4 C -1,6 C -1,3 C 33 % 83 % 1020,0 hPa 0,0 l/m 0,5 km/h (0 Bft) S-SW 202 -4,1 C -1,6 C 0,0 km/h (0 Bft)
17.12.2018 06:56 22,4 C -1,6 C -1,3 C 33 % 83 % 1020,0 hPa 0,0 l/m 0,5 km/h (0 Bft) S-SW 202 -4,1 C -1,6 C 0,0 km/h (0 Bft)
17.12.2018 06:54 22,4 C -1,6 C -1,3 C 33 % 83 % 1020,0 hPa 0,0 l/m 0,8 km/h (0 Bft) SW 225 -4,1 C -1,6 C 0,0 km/h (0 Bft)
17.12.2018 06:52 22,5 C -1,6 C -1,2 C 33 % 83 % 1020,0 hPa 0,0 l/m 1,0 km/h (0 Bft) SW 225 -4,1 C -1,6 C 0,0 km/h (0 Bft)
17.12.2018 06:50 22,5 C -1,6 C -1,2 C 33 % 83 % 1020,0 hPa 0,0 l/m 1,0 km/h (0 Bft) SW 225 -4,1 C -1,6 C 4,4 km/h (1 Bft)
17.12.2018 06:48 22,5 C -1,6 C -1,2 C 33 % 83 % 1020,0 hPa 0,0 l/m 1,0 km/h (0 Bft) NW 315 -4,1 C -1,6 C 4,4 km/h (1 Bft)
17.12.2018 06:46 22,5 C -1,6 C -1,0 C 33 % 83 % 1020,0 hPa 0,0 l/m 0,8 km/h (0 Bft) W-NW 292 -4,1 C -1,6 C 2,9 km/h (1 Bft)
17.12.2018 06:44 22,5 C -1,6 C -1,2 C 33 % 83 % 1020,0 hPa 0,0 l/m 0,5 km/h (0 Bft) NW 315 -4,1 C -1,6 C 2,9 km/h (1 Bft)
17.12.2018 06:42 22,5 C -1,6 C -1,2 C 33 % 83 % 1020,0 hPa 0,0 l/m 0,2 km/h (0 Bft) NW 315 -4,1 C -1,6 C 0,0 km/h (0 Bft)
17.12.2018 06:40 22,5 C -1,6 C -1,4 C 33 % 83 % 1020,0 hPa 0,0 l/m 0,2 km/h (0 Bft) S-SO 157 -4,1 C -1,6 C 2,1 km/h (1 Bft)
17.12.2018 06:38 22,5 C -1,8 C -1,3 C 33 % 83 % 1020,0 hPa 0,0 l/m 0,2 km/h (0 Bft) W-SW 247 -4,3 C -1,8 C 2,1 km/h (1 Bft)
17.12.2018 06:36 22,6 C -1,6 C -1,3 C 33 % 83 % 1020,0 hPa 0,0 l/m 0,2 km/h (0 Bft) W-SW 247 -4,1 C -1,6 C 2,1 km/h (1 Bft)
17.12.2018 06:34 22,6 C -1,6 C -1,2 C 33 % 83 % 1020,0 hPa 0,0 l/m 0,5 km/h (0 Bft) SW 225 -4,1 C -1,6 C 2,9 km/h (1 Bft)
17.12.2018 06:32 22,6 C -1,6 C -1,3 C 33 % 83 % 1020,0 hPa 0,0 l/m 1,0 km/h (0 Bft) S-SW 202 -4,1 C -1,6 C 2,9 km/h (1 Bft)
17.12.2018 06:30 22,6 C -1,6 C -1,0 C 33 % 83 % 1020,0 hPa 0,0 l/m 1,3 km/h (1 Bft) S-SW 202 -4,1 C -1,6 C 0,0 km/h (0 Bft)
17.12.2018 06:28 22,6 C -1,6 C -1,0 C 33 % 83 % 1020,0 hPa 0,0 l/m 2,1 km/h (1 Bft) S-SW 202 -4,1 C -1,6 C 0,0 km/h (0 Bft)
17.12.2018 06:26 22,6 C -1,6 C -1,0 C 33 % 83 % 1020,0 hPa 0,0 l/m 2,9 km/h (1 Bft) S 180 -4,1 C -1,6 C 2,9 km/h (1 Bft)
17.12.2018 06:24 22,6 C -1,6 C -1,0 C 33 % 83 % 1020,0 hPa 0,0 l/m 2,9 km/h (1 Bft) S 180 -4,1 C -1,6 C 3,5 km/h (1 Bft)
17.12.2018 06:22 22,6 C -1,6 C -1,0 C 33 % 83 % 1020,0 hPa 0,0 l/m 2,7 km/h (1 Bft) SO 135 -4,1 C -1,6 C 3,5 km/h (1 Bft)
17.12.2018 06:20 22,6 C -1,6 C -0,9 C 33 % 83 % 1020,0 hPa 0,0 l/m 2,4 km/h (1 Bft) O-SO 112 -4,1 C -1,6 C 6,0 km/h (2 Bft)
17.12.2018 06:18 22,6 C -1,6 C -0,9 C 34 % 83 % 1019,9 hPa 0,0 l/m 1,8 km/h (1 Bft) O-SO 112 -4,1 C -1,6 C 6,0 km/h (2 Bft)
17.12.2018 06:16 22,6 C -1,6 C -1,0 C 34 % 83 % 1019,9 hPa 0,0 l/m 1,8 km/h (1 Bft) O-SO 112 -4,1 C -1,6 C 6,0 km/h (2 Bft)
17.12.2018 06:14 22,6 C -1,6 C -1,0 C 34 % 83 % 1019,9 hPa 0,0 l/m 1,3 km/h (1 Bft) O 90 -4,1 C -1,6 C 3,5 km/h (1 Bft)
17.12.2018 06:12 22,6 C -1,6 C -1,0 C 34 % 83 % 1019,9 hPa 0,0 l/m 1,3 km/h (1 Bft) O-SO 112 -4,1 C -1,6 C 3,5 km/h (1 Bft)
17.12.2018 06:10 22,6 C -1,8 C -1,2 C 34 % 83 % 1019,9 hPa 0,0 l/m 1,1 km/h (1 Bft) O 90 -4,3 C -1,8 C 2,9 km/h (1 Bft)
17.12.2018 06:08 22,6 C -1,8 C -1,2 C 34 % 83 % 1019,9 hPa 0,0 l/m 1,0 km/h (0 Bft) O 90 -4,3 C -1,8 C 3,9 km/h (1 Bft)
17.12.2018 06:06 22,6 C -1,8 C -1,2 C 34 % 83 % 1019,9 hPa 0,0 l/m 0,3 km/h (0 Bft) O-SO 112 -4,3 C -1,8 C 3,9 km/h (1 Bft)
17.12.2018 06:04 22,6 C -1,8 C -1,2 C 34 % 83 % 1019,9 hPa 0,0 l/m 0,0 km/h (0 Bft) SO 135 -4,3 C -1,8 C 0,0 km/h (0 Bft)
17.12.2018 06:02 22,6 C -1,8 C -1,2 C 34 % 83 % 1019,9 hPa 0,0 l/m 0,0 km/h (0 Bft) SO 135 -4,3 C -1,8 C 0,0 km/h (0 Bft)
17.12.2018 06:00 22,6 C -1,8 C -1,2 C 34 % 83 % 1019,9 hPa 0,0 l/m 0,0 km/h (0 Bft) SO 135 -4,3 C -1,8 C 0,0 km/h (0 Bft)
17.12.2018 05:58 22,6 C -1,8 C -1,2 C 34 % 83 % 1019,5 hPa 0,0 l/m 0,0 km/h (0 Bft) SO 135 -4,3 C -1,8 C 0,0 km/h (0 Bft)
17.12.2018 05:56 22,6 C -1,8 C -1,2 C 34 % 83 % 1019,5 hPa 0,0 l/m 0,0 km/h (0 Bft) SO 135 -4,3 C -1,8 C 0,0 km/h (0 Bft)
17.12.2018 05:54 22,6 C -1,8 C -1,2 C 34 % 83 % 1019,5 hPa 0,0 l/m 0,0 km/h (0 Bft) SO 135 -4,3 C -1,8 C 0,0 km/h (0 Bft)
17.12.2018 05:52 22,6 C -1,8 C -1,2 C 34 % 83 % 1019,5 hPa 0,0 l/m 0,0 km/h (0 Bft) SO 135 -4,3 C -1,8 C 0,0 km/h (0 Bft)
17.12.2018 05:50 22,6 C -1,8 C -1,2 C 34 % 83 % 1019,5 hPa 0,0 l/m 0,0 km/h (0 Bft) SO 135 -4,3 C -1,8 C 0,0 km/h (0 Bft)
17.12.2018 05:48 22,6 C -1,8 C -1,3 C 34 % 83 % 1019,5 hPa 0,0 l/m 0,0 km/h (0 Bft) SO 135 -4,3 C -1,8 C 0,0 km/h (0 Bft)
17.12.2018 05:46 22,6 C -1,8 C -1,3 C 34 % 83 % 1019,5 hPa 0,0 l/m 0,0 km/h (0 Bft) SO 135 -4,3 C -1,8 C 0,0 km/h (0 Bft)
17.12.2018 05:44 22,7 C -1,8 C -1,3 C 34 % 83 % 1019,5 hPa 0,0 l/m 0,0 km/h (0 Bft) SO 135 -4,3 C -1,8 C 0,0 km/h (0 Bft)
17.12.2018 05:42 22,6 C -1,8 C -1,3 C 34 % 83 % 1019,5 hPa 0,0 l/m 0,0 km/h (0 Bft) SO 135 -4,3 C -1,8 C 0,0 km/h (0 Bft)
17.12.2018 05:40 22,7 C -1,8 C -1,3 C 34 % 83 % 1019,5 hPa 0,0 l/m 0,2 km/h (0 Bft) SO 135 -4,3 C -1,8 C 0,0 km/h (0 Bft)
17.12.2018 05:38 22,7 C -1,8 C -1,3 C 34 % 83 % 1019,3 hPa 0,0 l/m 0,8 km/h (0 Bft) S-SO 157 -4,3 C -1,8 C 0,0 km/h (0 Bft)
17.12.2018 05:36 22,7 C -1,8 C -1,4 C 34 % 83 % 1019,3 hPa 0,0 l/m 0,8 km/h (0 Bft) S-SO 157 -4,3 C -1,8 C 0,0 km/h (0 Bft)
17.12.2018 05:34 22,7 C -1,8 C -1,4 C 34 % 83 % 1019,3 hPa 0,0 l/m 0,8 km/h (0 Bft) S-SO 157 -4,3 C -1,8 C 0,0 km/h (0 Bft)
17.12.2018 05:32 22,7 C -1,9 C -1,3 C 34 % 83 % 1019,3 hPa 0,0 l/m 0,8 km/h (0 Bft) S-SO 157 -4,4 C -1,9 C 0,0 km/h (0 Bft)
17.12.2018 05:30 22,7 C -1,9 C -1,3 C 33 % 83 % 1019,3 hPa 0,0 l/m 0,8 km/h (0 Bft) S-SO 157 -4,4 C -1,9 C 4,2 km/h (1 Bft)
17.12.2018 05:28 22,7 C -1,9 C -1,4 C 33 % 83 % 1019,3 hPa 0,0 l/m 0,3 km/h (0 Bft) O-SO 112 -4,4 C -1,9 C 4,2 km/h (1 Bft)
17.12.2018 05:26 22,7 C -1,9 C -1,4 C 33 % 83 % 1019,3 hPa 0,0 l/m 0,2 km/h (0 Bft) S-SW 202 -4,4 C -1,9 C 0,0 km/h (0 Bft)
17.12.2018 05:24 22,7 C -1,9 C -1,4 C 33 % 83 % 1019,3 hPa 0,0 l/m 0,2 km/h (0 Bft) S-SW 202 -4,4 C -1,9 C 0,0 km/h (0 Bft)
17.12.2018 05:22 22,7 C -1,9 C -1,5 C 33 % 83 % 1019,3 hPa 0,0 l/m 0,0 km/h (0 Bft) S-SW 202 -4,4 C -1,9 C 0,0 km/h (0 Bft)
17.12.2018 05:20 22,7 C -1,9 C -1,5 C 33 % 83 % 1019,3 hPa 0,0 l/m 0,0 km/h (0 Bft) S-SW 202 -4,4 C -1,9 C 0,0 km/h (0 Bft)
17.12.2018 05:18 22,7 C -1,9 C -1,5 C 33 % 83 % 1019,3 hPa 0,0 l/m 0,2 km/h (0 Bft) S-SW 202 -4,4 C -1,9 C 0,0 km/h (0 Bft)
17.12.2018 05:16 22,8 C -1,9 C -1,4 C 33 % 83 % 1019,3 hPa 0,0 l/m 0,2 km/h (0 Bft) S-SW 202 -4,4 C -1,9 C 0,0 km/h (0 Bft)
17.12.2018 05:14 22,7 C -1,9 C -1,4 C 33 % 83 % 1019,3 hPa 0,0 l/m 0,2 km/h (0 Bft) SW 225 -4,4 C -1,9 C 0,0 km/h (0 Bft)
17.12.2018 05:12 22,8 C -1,9 C -1,5 C 33 % 83 % 1019,3 hPa 0,0 l/m 0,2 km/h (0 Bft) SW 225 -4,4 C -1,9 C 0,0 km/h (0 Bft)
17.12.2018 05:10 22,8 C -1,9 C -1,5 C 33 % 83 % 1019,3 hPa 0,0 l/m 0,2 km/h (0 Bft) S-SW 202 -4,4 C -1,9 C 0,0 km/h (0 Bft)
17.12.2018 05:08 22,8 C -1,9 C -1,5 C 33 % 83 % 1019,3 hPa 0,0 l/m 0,2 km/h (0 Bft) S-SW 202 -4,4 C -1,9 C 1,9 km/h (1 Bft)
17.12.2018 05:06 22,8 C -1,9 C -1,5 C 33 % 83 % 1019,3 hPa 0,0 l/m 0,3 km/h (0 Bft) SO 135 -4,4 C -1,9 C 1,9 km/h (1 Bft)
17.12.2018 05:04 22,8 C -1,9 C -1,5 C 33 % 83 % 1019,3 hPa 0,0 l/m 0,3 km/h (0 Bft) SW 225 -4,4 C -1,9 C 0,0 km/h (0 Bft)
17.12.2018 05:02 22,8 C -1,9 C -1,5 C 33 % 83 % 1019,3 hPa 0,0 l/m 0,5 km/h (0 Bft) S-SW 202 -4,4 C -1,9 C 0,0 km/h (0 Bft)
17.12.2018 05:00 22,8 C -1,9 C -1,4 C 33 % 83 % 1019,3 hPa 0,0 l/m 0,5 km/h (0 Bft) S 180 -4,4 C -1,9 C 3,9 km/h (1 Bft)
17.12.2018 04:58 22,8 C -1,9 C -1,4 C 33 % 83 % 1019,3 hPa 0,0 l/m 0,5 km/h (0 Bft) S-SW 202 -4,4 C -1,9 C 3,9 km/h (1 Bft)
17.12.2018 04:56 22,8 C -1,9 C -1,4 C 33 % 83 % 1019,3 hPa 0,0 l/m 0,5 km/h (0 Bft) S-SW 202 -4,4 C -1,9 C 3,9 km/h (1 Bft)
17.12.2018 04:54 22,8 C -1,9 C -1,4 C 33 % 83 % 1019,3 hPa 0,0 l/m 0,2 km/h (0 Bft) S-SW 202 -4,4 C -1,9 C 2,1 km/h (1 Bft)
17.12.2018 04:52 22,8 C -1,9 C -1,4 C 33 % 82 % 1019,3 hPa 0,0 l/m 0,2 km/h (0 Bft) S 180 -4,6 C -1,9 C 0,0 km/h (0 Bft)
17.12.2018 04:50 22,8 C -1,9 C -1,4 C 33 % 82 % 1019,3 hPa 0,0 l/m 0,0 km/h (0 Bft) S 180 -4,6 C -1,9 C 0,0 km/h (0 Bft)
17.12.2018 04:48 22,8 C -1,9 C -1,5 C 33 % 82 % 1019,3 hPa 0,0 l/m 0,0 km/h (0 Bft) S-SW 202 -4,6 C -1,9 C 0,0 km/h (0 Bft)
17.12.2018 04:46 22,8 C -1,9 C -1,5 C 33 % 82 % 1019,3 hPa 0,0 l/m 0,0 km/h (0 Bft) S-SW 202 -4,6 C -1,9 C 0,0 km/h (0 Bft)
17.12.2018 04:44 22,9 C -1,9 C -1,5 C 33 % 82 % 1019,3 hPa 0,0 l/m 0,0 km/h (0 Bft) S-SW 202 -4,6 C -1,9 C 0,0 km/h (0 Bft)
17.12.2018 04:42 22,9 C -1,9 C -1,7 C 33 % 82 % 1019,3 hPa 0,0 l/m 0,0 km/h (0 Bft) S-SW 202 -4,6 C -1,9 C 0,0 km/h (0 Bft)
17.12.2018 04:40 22,9 C -1,9 C -1,7 C 33 % 82 % 1019,3 hPa 0,0 l/m 0,0 km/h (0 Bft) SW 225 -4,6 C -1,9 C 0,0 km/h (0 Bft)
17.12.2018 04:38 22,9 C -1,9 C -1,7 C 33 % 82 % 1019,0 hPa 0,0 l/m 0,0 km/h (0 Bft) SW 225 -4,6 C -1,9 C 0,0 km/h (0 Bft)
17.12.2018 04:36 22,9 C -1,9 C -1,7 C 33 % 82 % 1019,0 hPa 0,0 l/m 0,0 km/h (0 Bft) SW 225 -4,6 C -1,9 C 0,0 km/h (0 Bft)
17.12.2018 04:34 22,9 C -1,9 C -1,5 C 33 % 82 % 1019,0 hPa 0,0 l/m 0,0 km/h (0 Bft) S 180 -4,6 C -1,9 C 0,0 km/h (0 Bft)
17.12.2018 04:32 22,9 C -1,9 C -1,5 C 33 % 82 % 1019,0 hPa 0,0 l/m 0,2 km/h (0 Bft) S-SW 202 -4,6 C -1,9 C 0,0 km/h (0 Bft)
17.12.2018 04:30 22,9 C -1,9 C -1,5 C 33 % 82 % 1019,0 hPa 0,0 l/m 0,2 km/h (0 Bft) S-SW 202 -4,6 C -1,9 C 0,0 km/h (0 Bft)
17.12.2018 04:28 22,9 C -2,0 C -1,7 C 33 % 82 % 1019,0 hPa 0,0 l/m 0,2 km/h (0 Bft) S-SW 202 -4,7 C -2,0 C 0,0 km/h (0 Bft)
17.12.2018 04:26 23,0 C -2,0 C -1,7 C 33 % 82 % 1019,0 hPa 0,0 l/m 0,2 km/h (0 Bft) S-SW 202 -4,7 C -2,0 C 0,0 km/h (0 Bft)
17.12.2018 04:24 23,0 C -2,0 C -1,7 C 33 % 82 % 1019,0 hPa 0,0 l/m 0,3 km/h (0 Bft) S-SW 202 -4,7 C -2,0 C 2,1 km/h (1 Bft)
17.12.2018 04:22 23,0 C -2,0 C -1,8 C 33 % 82 % 1019,0 hPa 0,0 l/m 0,3 km/h (0 Bft) S-SW 202 -4,7 C -2,0 C 2,1 km/h (1 Bft)
17.12.2018 04:20 23,0 C -2,0 C -1,8 C 33 % 82 % 1019,0 hPa 0,0 l/m 0,3 km/h (0 Bft) SW 225 -4,7 C -2,0 C 0,0 km/h (0 Bft)
17.12.2018 04:18 23,0 C -2,0 C -1,7 C 33 % 82 % 1018,9 hPa 0,0 l/m 0,3 km/h (0 Bft) W-SW 247 -4,7 C -2,0 C 0,0 km/h (0 Bft)
17.12.2018 04:16 23,0 C -2,0 C -1,8 C 33 % 82 % 1018,9 hPa 0,0 l/m 0,3 km/h (0 Bft) W-SW 247 -4,7 C -2,0 C 2,1 km/h (1 Bft)
17.12.2018 04:14 23,0 C -2,0 C -1,9 C 33 % 82 % 1018,9 hPa 0,0 l/m 0,2 km/h (0 Bft) S-SW 202 -4,7 C -2,0 C 3,1 km/h (1 Bft)
17.12.2018 04:12 23,0 C -2,0 C -1,9 C 33 % 82 % 1018,9 hPa 0,0 l/m 0,2 km/h (0 Bft) S 180 -4,7 C -2,0 C 3,1 km/h (1 Bft)
17.12.2018 04:10 23,0 C -1,9 C -1,8 C 33 % 82 % 1018,9 hPa 0,0 l/m 0,2 km/h (0 Bft) W-SW 247 -4,6 C -1,9 C 0,0 km/h (0 Bft)
17.12.2018 04:08 23,0 C -1,9 C -1,7 C 33 % 82 % 1018,9 hPa 0,0 l/m 0,2 km/h (0 Bft) SW 225 -4,6 C -1,9 C 0,0 km/h (0 Bft)
17.12.2018 04:06 23,0 C -1,9 C -1,8 C 33 % 82 % 1018,9 hPa 0,0 l/m 0,3 km/h (0 Bft) W-SW 247 -4,6 C -1,9 C 0,0 km/h (0 Bft)
17.12.2018 04:04 23,0 C -1,9 C -1,8 C 33 % 82 % 1018,9 hPa 0,0 l/m 0,6 km/h (0 Bft) SW 225 -4,6 C -1,9 C 2,1 km/h (1 Bft)
17.12.2018 04:02 23,0 C -1,9 C -1,7 C 33 % 82 % 1018,9 hPa 0,0 l/m 0,8 km/h (0 Bft) S-SW 202 -4,6 C -1,9 C 2,1 km/h (1 Bft)
17.12.2018 04:00 23,0 C -1,9 C -1,7 C 33 % 82 % 1018,9 hPa 0,0 l/m 1,0 km/h (0 Bft) SW 225 -4,6 C -1,9 C 3,1 km/h (1 Bft)
17.12.2018 03:58 23,0 C -1,9 C -1,5 C 33 % 82 % 1018,8 hPa 0,0 l/m 1,0 km/h (0 Bft) S-SW 202 -4,6 C -1,9 C 3,1 km/h (1 Bft)
17.12.2018 03:56 23,0 C -1,8 C -1,5 C 33 % 82 % 1018,8 hPa 0,0 l/m 1,0 km/h (0 Bft) S-SW 202 -4,5 C -1,8 C 3,1 km/h (1 Bft)
17.12.2018 03:54 23,0 C -1,8 C -1,5 C 33 % 82 % 1018,8 hPa 0,0 l/m 0,8 km/h (0 Bft) SO 135 -4,5 C -1,8 C 3,1 km/h (1 Bft)
17.12.2018 03:52 23,0 C -1,8 C -1,5 C 33 % 82 % 1018,8 hPa 0,0 l/m 0,5 km/h (0 Bft) SO 135 -4,5 C -1,8 C 2,3 km/h (1 Bft)
17.12.2018 03:50 22,9 C -1,8 C -1,7 C 33 % 82 % 1018,8 hPa 0,0 l/m 0,5 km/h (0 Bft) S-SW 202 -4,5 C -1,8 C 2,5 km/h (1 Bft)
17.12.2018 03:48 22,9 C -1,8 C -1,5 C 33 % 82 % 1018,8 hPa 0,0 l/m 0,5 km/h (0 Bft) S 180 -4,5 C -1,8 C 2,5 km/h (1 Bft)
17.12.2018 03:46 22,9 C -1,8 C -1,5 C 33 % 82 % 1018,8 hPa 0,0 l/m 0,6 km/h (0 Bft) S 180 -4,5 C -1,8 C 0,0 km/h (0 Bft)
17.12.2018 03:44 22,8 C -1,8 C -1,5 C 33 % 82 % 1018,8 hPa 0,0 l/m 1,3 km/h (1 Bft) S 180 -4,5 C -1,8 C 0,0 km/h (0 Bft)
17.12.2018 03:42 22,8 C -1,8 C -1,5 C 33 % 82 % 1018,8 hPa 0,0 l/m 1,8 km/h (1 Bft) S 180 -4,5 C -1,8 C 2,1 km/h (1 Bft)
17.12.2018 03:40 22,8 C -1,9 C -1,5 C 33 % 82 % 1018,8 hPa 0,0 l/m 1,9 km/h (1 Bft) S-SO 157 -4,6 C -1,9 C 3,7 km/h (1 Bft)
17.12.2018 03:38 22,8 C -1,9 C -1,5 C 33 % 82 % 1018,2 hPa 0,0 l/m 2,1 km/h (1 Bft) SO 135 -4,6 C -1,9 C 3,7 km/h (1 Bft)
17.12.2018 03:36 22,8 C -1,9 C -1,5 C 33 % 82 % 1018,2 hPa 0,0 l/m 2,1 km/h (1 Bft) SO 135 -4,6 C -1,9 C 5,0 km/h (1 Bft)
17.12.2018 03:34 22,8 C -1,9 C -1,4 C 33 % 82 % 1018,2 hPa 0,0 l/m 1,6 km/h (1 Bft) O-SO 112 -4,6 C -1,9 C 5,0 km/h (1 Bft)
17.12.2018 03:32 22,7 C -1,9 C -1,4 C 33 % 82 % 1018,2 hPa 0,0 l/m 1,0 km/h (0 Bft) O 90 -4,6 C -1,9 C 3,9 km/h (1 Bft)
17.12.2018 03:30 22,7 C -1,9 C -1,5 C 33 % 82 % 1018,2 hPa 0,0 l/m 0,5 km/h (0 Bft) O-SO 112 -4,6 C -1,9 C 3,3 km/h (1 Bft)
17.12.2018 03:28 22,7 C -1,9 C -1,5 C 33 % 82 % 1018,2 hPa 0,0 l/m 0,5 km/h (0 Bft) O 90 -4,6 C -1,9 C 2,7 km/h (1 Bft)
17.12.2018 03:26 22,6 C -1,9 C -1,5 C 33 % 82 % 1018,2 hPa 0,0 l/m 0,2 km/h (0 Bft) SO 135 -4,6 C -1,9 C 0,0 km/h (0 Bft)
17.12.2018 03:24 22,6 C -1,9 C -1,5 C 33 % 82 % 1018,2 hPa 0,0 l/m 0,3 km/h (0 Bft) O 90 -4,6 C -1,9 C 0,0 km/h (0 Bft)
17.12.2018 03:22 22,6 C -2,0 C -1,7 C 33 % 82 % 1018,2 hPa 0,0 l/m 0,5 km/h (0 Bft) O 90 -4,7 C -2,0 C 0,0 km/h (0 Bft)
17.12.2018 03:20 22,6 C -2,0 C -1,7 C 33 % 82 % 1018,2 hPa 0,0 l/m 0,8 km/h (0 Bft) O 90 -4,7 C -2,0 C 2,7 km/h (1 Bft)
17.12.2018 03:18 22,6 C -2,0 C -1,7 C 33 % 82 % 1018,5 hPa 0,0 l/m 1,8 km/h (1 Bft) O-SO 112 -4,7 C -2,0 C 2,7 km/h (1 Bft)
17.12.2018 03:16 22,6 C -2,0 C -1,7 C 33 % 82 % 1018,5 hPa 0,0 l/m 1,8 km/h (1 Bft) O-SO 112 -4,7 C -2,0 C 2,7 km/h (1 Bft)
17.12.2018 03:14 22,6 C -2,0 C -1,7 C 33 % 82 % 1018,5 hPa 0,0 l/m 1,9 km/h (1 Bft) O-SO 112 -4,7 C -2,0 C 0,0 km/h (0 Bft)
17.12.2018 03:12 22,6 C -2,0 C -1,7 C 33 % 82 % 1018,5 hPa 0,0 l/m 1,9 km/h (1 Bft) O-SO 112 -4,7 C -2,0 C 4,1 km/h (1 Bft)
17.12.2018 03:10 22,6 C -2,2 C -1,8 C 33 % 82 % 1018,5 hPa 0,0 l/m 1,6 km/h (1 Bft) O-SO 112 -4,8 C -2,2 C 4,4 km/h (1 Bft)
17.12.2018 03:08 22,5 C -2,2 C -1,8 C 33 % 82 % 1018,5 hPa 0,0 l/m 1,0 km/h (0 Bft) O-SO 112 -4,8 C -2,2 C 4,4 km/h (1 Bft)
17.12.2018 03:06 22,6 C -2,2 C -1,9 C 33 % 82 % 1018,5 hPa 0,0 l/m 0,6 km/h (0 Bft) O-SO 112 -4,8 C -2,2 C 4,2 km/h (1 Bft)
17.12.2018 03:04 22,6 C -2,2 C -1,9 C 33 % 82 % 1018,5 hPa 0,0 l/m 0,0 km/h (0 Bft) SW 225 -4,8 C -2,2 C 0,0 km/h (0 Bft)
17.12.2018 03:02 22,6 C -2,2 C -1,9 C 33 % 82 % 1018,5 hPa 0,0 l/m 0,0 km/h (0 Bft) SW 225 -4,8 C -2,2 C 0,0 km/h (0 Bft)
17.12.2018 03:00 22,6 C -2,2 C -1,9 C 33 % 82 % 1018,5 hPa 0,0 l/m 0,0 km/h (0 Bft) SW 225 -4,8 C -2,2 C 0,0 km/h (0 Bft)
17.12.2018 02:58 22,6 C -2,2 C -1,9 C 33 % 82 % 1018,4 hPa 0,0 l/m 0,0 km/h (0 Bft) SW 225 -4,8 C -2,2 C 0,0 km/h (0 Bft)
17.12.2018 02:56 22,6 C -2,2 C -1,9 C 33 % 82 % 1018,4 hPa 0,0 l/m 0,0 km/h (0 Bft) SW 225 -4,8 C -2,2 C 0,0 km/h (0 Bft)
17.12.2018 02:54 22,6 C -2,2 C -1,9 C 33 % 82 % 1018,4 hPa 0,0 l/m 0,0 km/h (0 Bft) S-SW 202 -4,8 C -2,2 C 0,0 km/h (0 Bft)
17.12.2018 02:52 22,6 C -2,2 C -2,0 C 33 % 82 % 1018,4 hPa 0,0 l/m 0,0 km/h (0 Bft) SO 135 -4,8 C -2,2 C 0,0 km/h (0 Bft)
17.12.2018 02:50 22,6 C -2,3 C -2,0 C 33 % 82 % 1018,4 hPa 0,0 l/m 0,0 km/h (0 Bft) SO 135 -4,9 C -2,3 C 0,0 km/h (0 Bft)
17.12.2018 02:48 22,6 C -2,3 C -1,9 C 33 % 82 % 1018,4 hPa 0,0 l/m 0,0 km/h (0 Bft) SO 135 -4,9 C -2,3 C 0,0 km/h (0 Bft)
17.12.2018 02:46 22,6 C -2,3 C -1,9 C 33 % 82 % 1018,4 hPa 0,0 l/m 0,0 km/h (0 Bft) SO 135 -4,9 C -2,3 C 0,0 km/h (0 Bft)
17.12.2018 02:44 22,6 C -2,3 C -2,0 C 33 % 82 % 1018,4 hPa 0,0 l/m 0,0 km/h (0 Bft) SO 135 -4,9 C -2,3 C 0,0 km/h (0 Bft)
17.12.2018 02:42 22,6 C -2,3 C -2,2 C 33 % 81 % 1018,4 hPa 0,0 l/m 0,0 km/h (0 Bft) SO 135 -5,1 C -2,3 C 0,0 km/h (0 Bft)
17.12.2018 02:40 22,7 C -2,3 C -2,2 C 33 % 81 % 1018,4 hPa 0,0 l/m 0,0 km/h (0 Bft) SO 135 -5,1 C -2,3 C 0,0 km/h (0 Bft)
17.12.2018 02:38 22,7 C -2,3 C -2,2 C 33 % 81 % 1018,9 hPa 0,0 l/m 0,0 km/h (0 Bft) SO 135 -5,1 C -2,3 C 0,0 km/h (0 Bft)
17.12.2018 02:36 22,7 C -2,3 C -2,2 C 33 % 81 % 1018,9 hPa 0,0 l/m 0,0 km/h (0 Bft) SO 135 -5,1 C -2,3 C 0,0 km/h (0 Bft)
17.12.2018 02:34 22,7 C -2,3 C -2,2 C 33 % 81 % 1018,9 hPa 0,0 l/m 0,0 km/h (0 Bft) SO 135 -5,1 C -2,3 C 0,0 km/h (0 Bft)
17.12.2018 02:32 22,7 C -2,4 C -2,3 C 33 % 81 % 1018,9 hPa 0,0 l/m 0,0 km/h (0 Bft) SO 135 -5,2 C -2,4 C 0,0 km/h (0 Bft)
17.12.2018 02:30 22,7 C -2,4 C -2,2 C 33 % 81 % 1018,9 hPa 0,0 l/m 0,0 km/h (0 Bft) SO 135 -5,2 C -2,4 C 0,0 km/h (0 Bft)
17.12.2018 02:28 22,7 C -2,4 C -2,3 C 33 % 81 % 1018,9 hPa 0,0 l/m 0,0 km/h (0 Bft) S-SW 202 -5,2 C -2,4 C 0,0 km/h (0 Bft)
17.12.2018 02:26 22,7 C -2,4 C -2,3 C 33 % 81 % 1018,9 hPa 0,0 l/m 0,0 km/h (0 Bft) S-SW 202 -5,2 C -2,4 C 0,0 km/h (0 Bft)
17.12.2018 02:24 22,8 C -2,4 C -2,3 C 33 % 81 % 1018,9 hPa 0,0 l/m 0,2 km/h (0 Bft) S-SW 202 -5,2 C -2,4 C 0,0 km/h (0 Bft)
17.12.2018 02:22 22,8 C -2,4 C -2,3 C 33 % 81 % 1018,9 hPa 0,0 l/m 0,2 km/h (0 Bft) SO 135 -5,2 C -2,4 C 0,0 km/h (0 Bft)
17.12.2018 02:20 22,8 C -2,4 C -2,4 C 33 % 81 % 1018,9 hPa 0,0 l/m 0,2 km/h (0 Bft) S-SW 202 -5,2 C -2,4 C 0,0 km/h (0 Bft)
17.12.2018 02:18 22,8 C -2,4 C -2,4 C 33 % 81 % 1018,4 hPa 0,0 l/m 0,2 km/h (0 Bft) S-SW 202 -5,2 C -2,4 C 0,0 km/h (0 Bft)
17.12.2018 02:16 22,8 C -2,4 C -2,3 C 33 % 81 % 1018,4 hPa 0,0 l/m 0,2 km/h (0 Bft) S-SW 202 -5,2 C -2,4 C 2,3 km/h (1 Bft)
17.12.2018 02:14 22,8 C -2,4 C -2,4 C 33 % 81 % 1018,4 hPa 0,0 l/m 0,2 km/h (0 Bft) S 180 -5,2 C -2,4 C 2,3 km/h (1 Bft)
17.12.2018 02:12 22,8 C -2,4 C -2,4 C 33 % 81 % 1018,4 hPa 0,0 l/m 0,0 km/h (0 Bft) S-SW 202 -5,2 C -2,4 C 0,0 km/h (0 Bft)
17.12.2018 02:10 22,8 C -2,3 C -2,3 C 33 % 81 % 1018,4 hPa 0,0 l/m 0,0 km/h (0 Bft) SW 225 -5,1 C -2,3 C 0,0 km/h (0 Bft)
17.12.2018 02:08 22,8 C -2,3 C -2,3 C 33 % 81 % 1018,4 hPa 0,0 l/m 0,0 km/h (0 Bft) SW 225 -5,1 C -2,3 C 0,0 km/h (0 Bft)
17.12.2018 02:06 22,8 C -2,3 C -2,3 C 33 % 81 % 1018,4 hPa 0,0 l/m 0,0 km/h (0 Bft) SW 225 -5,1 C -2,3 C 0,0 km/h (0 Bft)
17.12.2018 02:04 22,8 C -2,3 C -2,3 C 32 % 81 % 1018,4 hPa 0,0 l/m 0,0 km/h (0 Bft) SW 225 -5,1 C -2,3 C 0,0 km/h (0 Bft)
17.12.2018 02:02 22,8 C -2,3 C -2,3 C 33 % 81 % 1018,4 hPa 0,0 l/m 0,0 km/h (0 Bft) W-SW 247 -5,1 C -2,3 C 0,0 km/h (0 Bft)
17.12.2018 02:00 22,8 C -2,3 C -2,3 C 33 % 81 % 1018,4 hPa 0,0 l/m 0,0 km/h (0 Bft) W-SW 247 -5,1 C -2,3 C 0,0 km/h (0 Bft)
17.12.2018 01:58 22,8 C -2,3 C -2,3 C 33 % 81 % 1018,0 hPa 0,0 l/m 0,2 km/h (0 Bft) S 180 -5,1 C -2,3 C 0,0 km/h (0 Bft)
17.12.2018 01:56 22,9 C -2,3 C -2,4 C 33 % 81 % 1018,0 hPa 0,0 l/m 0,2 km/h (0 Bft) S 180 -5,1 C -2,3 C 0,0 km/h (0 Bft)
17.12.2018 01:54 22,9 C -2,3 C -2,4 C 33 % 81 % 1018,0 hPa 0,0 l/m 0,2 km/h (0 Bft) S 180 -5,1 C -2,3 C 0,0 km/h (0 Bft)
17.12.2018 01:52 22,9 C -2,3 C -2,4 C 32 % 81 % 1018,0 hPa 0,0 l/m 0,2 km/h (0 Bft) S-SW 202 -5,1 C -2,3 C 0,0 km/h (0 Bft)
17.12.2018 01:50 22,9 C -2,3 C -2,4 C 32 % 81 % 1018,0 hPa 0,0 l/m 0,2 km/h (0 Bft) S-SW 202 -5,1 C -2,3 C 0,0 km/h (0 Bft)
17.12.2018 01:48 22,9 C -2,3 C -2,3 C 32 % 81 % 1018,0 hPa 0,0 l/m 0,2 km/h (0 Bft) SW 225 -5,1 C -2,3 C 0,0 km/h (0 Bft)
17.12.2018 01:46 22,9 C -2,3 C -2,3 C 32 % 81 % 1018,0 hPa 0,0 l/m 0,3 km/h (0 Bft) S-SW 202 -5,1 C -2,3 C 2,1 km/h (1 Bft)
17.12.2018 01:44 22,9 C -2,3 C -2,3 C 32 % 81 % 1018,0 hPa 0,0 l/m 0,5 km/h (0 Bft) O 90 -5,1 C -2,3 C 0,0 km/h (0 Bft)
17.12.2018 01:42 22,9 C -2,3 C -2,4 C 32 % 81 % 1018,0 hPa 0,0 l/m 0,8 km/h (0 Bft) O 90 -5,1 C -2,3 C 0,0 km/h (0 Bft)
17.12.2018 01:40 22,9 C -2,3 C -2,4 C 32 % 81 % 1018,0 hPa 0,0 l/m 0,8 km/h (0 Bft) S-SO 157 -5,1 C -2,3 C 0,0 km/h (0 Bft)
17.12.2018 01:38 23,0 C -2,3 C -2,4 C 32 % 81 % 1018,6 hPa 0,0 l/m 0,8 km/h (0 Bft) S 180 -5,1 C -2,3 C 0,0 km/h (0 Bft)
17.12.2018 01:36 23,0 C -2,3 C -2,4 C 32 % 81 % 1018,6 hPa 0,0 l/m 0,8 km/h (0 Bft) S 180 -5,1 C -2,3 C 0,0 km/h (0 Bft)
17.12.2018 01:34 23,0 C -2,3 C -2,4 C 32 % 81 % 1018,6 hPa 0,0 l/m 1,3 km/h (1 Bft) O-SO 112 -5,1 C -2,3 C 2,7 km/h (1 Bft)
17.12.2018 01:32 23,0 C -2,3 C -2,4 C 33 % 81 % 1018,6 hPa 0,0 l/m 1,3 km/h (1 Bft) O-SO 112 -5,1 C -2,3 C 2,7 km/h (1 Bft)
17.12.2018 01:30 23,0 C -2,3 C -2,4 C 33 % 81 % 1018,6 hPa 0,0 l/m 1,6 km/h (1 Bft) S 180 -5,1 C -2,3 C 0,0 km/h (0 Bft)
17.12.2018 01:28 23,0 C -2,3 C -2,4 C 33 % 81 % 1018,6 hPa 0,0 l/m 1,9 km/h (1 Bft) S-SO 157 -5,1 C -2,3 C 2,7 km/h (1 Bft)
17.12.2018 01:26 23,0 C -2,3 C -2,6 C 33 % 81 % 1018,6 hPa 0,0 l/m 1,9 km/h (1 Bft) SO 135 -5,1 C -2,3 C 2,7 km/h (1 Bft)
17.12.2018 01:24 23,0 C -2,3 C -2,6 C 32 % 81 % 1018,6 hPa 0,0 l/m 1,6 km/h (1 Bft) S-SO 157 -5,1 C -2,3 C 4,1 km/h (1 Bft)
17.12.2018 01:22 23,0 C -2,3 C -2,6 C 33 % 81 % 1018,6 hPa 0,0 l/m 1,8 km/h (1 Bft) SO 135 -5,1 C -2,3 C 3,9 km/h (1 Bft)
17.12.2018 01:20 23,0 C -2,3 C -2,6 C 33 % 81 % 1018,6 hPa 0,0 l/m 2,1 km/h (1 Bft) S-SO 157 -5,1 C -2,3 C 3,9 km/h (1 Bft)
17.12.2018 01:18 23,0 C -2,3 C -2,6 C 33 % 81 % 1018,6 hPa 0,0 l/m 1,9 km/h (1 Bft) O-SO 112 -5,1 C -2,3 C 1,9 km/h (1 Bft)
17.12.2018 01:16 23,0 C -2,3 C -2,6 C 33 % 81 % 1018,6 hPa 0,0 l/m 1,9 km/h (1 Bft) O-SO 112 -5,1 C -2,3 C 1,9 km/h (1 Bft)
17.12.2018 01:14 23,0 C -2,2 C -2,6 C 33 % 81 % 1018,6 hPa 0,0 l/m 2,3 km/h (1 Bft) S 180 -5,0 C -2,2 C 4,6 km/h (1 Bft)
17.12.2018 01:12 23,0 C -2,2 C -2,6 C 33 % 81 % 1018,6 hPa 0,0 l/m 2,3 km/h (1 Bft) S 180 -5,0 C -2,2 C 4,6 km/h (1 Bft)
17.12.2018 01:10 23,0 C -2,2 C -2,4 C 33 % 81 % 1018,6 hPa 0,0 l/m 1,9 km/h (1 Bft) SO 135 -5,0 C -2,2 C 3,5 km/h (1 Bft)
17.12.2018 01:08 23,0 C -2,2 C -2,6 C 33 % 81 % 1018,6 hPa 0,0 l/m 1,9 km/h (1 Bft) S-SW 202 -5,0 C -2,2 C 2,9 km/h (1 Bft)
17.12.2018 01:06 23,0 C -2,2 C -2,4 C 33 % 81 % 1018,6 hPa 0,0 l/m 1,9 km/h (1 Bft) O-NO 67 -5,0 C -2,2 C 2,3 km/h (1 Bft)
17.12.2018 01:04 23,0 C -2,2 C -2,4 C 33 % 81 % 1018,6 hPa 0,0 l/m 1,6 km/h (1 Bft) S-SO 157 -5,0 C -2,2 C 2,3 km/h (1 Bft)
17.12.2018 01:02 23,0 C -2,2 C -2,4 C 33 % 81 % 1018,6 hPa 0,0 l/m 1,6 km/h (1 Bft) SO 135 -5,0 C -2,2 C 4,1 km/h (1 Bft)
17.12.2018 01:00 23,0 C -2,2 C -2,3 C 33 % 81 % 1018,6 hPa 0,0 l/m 1,8 km/h (1 Bft) S-SO 157 -5,0 C -2,2 C 3,3 km/h (1 Bft)
17.12.2018 00:58 23,0 C -2,2 C -2,3 C 33 % 81 % 1018,8 hPa 0,0 l/m 1,6 km/h (1 Bft) S 180 -5,0 C -2,2 C 3,3 km/h (1 Bft)
17.12.2018 00:56 23,0 C -2,2 C -2,2 C 33 % 81 % 1018,8 hPa 0,0 l/m 1,6 km/h (1 Bft) S 180 -5,0 C -2,2 C 3,3 km/h (1 Bft)
17.12.2018 00:54 23,0 C -2,0 C -2,0 C 33 % 81 % 1018,8 hPa 0,0 l/m 1,4 km/h (1 Bft) S 180 -4,8 C -2,0 C 0,0 km/h (0 Bft)
17.12.2018 00:52 23,0 C -2,2 C -2,0 C 33 % 81 % 1018,8 hPa 0,0 l/m 1,3 km/h (1 Bft) S-SW 202 -5,0 C -2,2 C 2,5 km/h (1 Bft)
17.12.2018 00:50 23,0 C -2,2 C -2,0 C 32 % 81 % 1018,8 hPa 0,0 l/m 1,1 km/h (1 Bft) O-SO 112 -5,0 C -2,2 C 4,4 km/h (1 Bft)
17.12.2018 00:48 23,0 C -2,2 C -2,2 C 32 % 81 % 1018,8 hPa 0,0 l/m 0,8 km/h (0 Bft) O 90 -5,0 C -2,2 C 4,1 km/h (1 Bft)
17.12.2018 00:46 23,0 C -2,2 C -2,2 C 32 % 81 % 1018,8 hPa 0,0 l/m 0,6 km/h (0 Bft) SO 135 -5,0 C -2,2 C 3,3 km/h (1 Bft)
17.12.2018 00:44 23,0 C -2,2 C -2,2 C 32 % 81 % 1018,8 hPa 0,0 l/m 0,5 km/h (0 Bft) S-SO 157 -5,0 C -2,2 C 1,9 km/h (1 Bft)
17.12.2018 00:42 23,0 C -2,2 C -2,3 C 32 % 81 % 1018,8 hPa 0,0 l/m 0,5 km/h (0 Bft) S-SW 202 -5,0 C -2,2 C 0,0 km/h (0 Bft)
17.12.2018 00:40 23,1 C -2,2 C -2,3 C 32 % 81 % 1018,8 hPa 0,0 l/m 0,3 km/h (0 Bft) S-SW 202 -5,0 C -2,2 C 3,1 km/h (1 Bft)
17.12.2018 00:38 23,1 C -2,2 C -2,3 C 32 % 81 % 1019,0 hPa 0,0 l/m 0,2 km/h (0 Bft) SW 225 -5,0 C -2,2 C 0,0 km/h (0 Bft)
17.12.2018 00:36 23,1 C -2,2 C -2,3 C 32 % 81 % 1019,0 hPa 0,0 l/m 0,2 km/h (0 Bft) SW 225 -5,0 C -2,2 C 0,0 km/h (0 Bft)
17.12.2018 00:34 23,1 C -2,2 C -2,3 C 32 % 81 % 1019,0 hPa 0,0 l/m 0,6 km/h (0 Bft) S-SW 202 -5,0 C -2,2 C 0,0 km/h (0 Bft)
17.12.2018 00:32 23,1 C -2,2 C -2,3 C 32 % 81 % 1019,0 hPa 0,0 l/m 1,0 km/h (0 Bft) S-SW 202 -5,0 C -2,2 C 0,0 km/h (0 Bft)
17.12.2018 00:30 23,1 C -2,2 C -2,3 C 32 % 81 % 1019,0 hPa 0,0 l/m 1,0 km/h (0 Bft) SW 225 -5,0 C -2,2 C 1,9 km/h (1 Bft)
17.12.2018 00:28 23,2 C -2,2 C -2,3 C 32 % 81 % 1019,0 hPa 0,0 l/m 1,1 km/h (1 Bft) S-SW 202 -5,0 C -2,2 C 1,9 km/h (1 Bft)
17.12.2018 00:26 23,2 C -2,2 C -2,3 C 32 % 81 % 1019,0 hPa 0,0 l/m 1,1 km/h (1 Bft) S-SW 202 -5,0 C -2,2 C 2,1 km/h (1 Bft)
17.12.2018 00:24 23,2 C -2,2 C -2,2 C 32 % 81 % 1019,0 hPa 0,0 l/m 1,1 km/h (1 Bft) S-SW 202 -5,0 C -2,2 C 3,3 km/h (1 Bft)
17.12.2018 00:22 23,2 C -2,2 C -2,2 C 32 % 81 % 1019,0 hPa 0,0 l/m 1,0 km/h (0 Bft) S-SO 157 -5,0 C -2,2 C 3,3 km/h (1 Bft)
17.12.2018 00:20 23,2 C -2,2 C -2,2 C 32 % 81 % 1019,0 hPa 0,0 l/m 0,8 km/h (0 Bft) S-SW 202 -5,0 C -2,2 C 0,0 km/h (0 Bft)
17.12.2018 00:18 23,2 C -2,2 C -2,2 C 32 % 81 % 1018,9 hPa 0,0 l/m 1,3 km/h (1 Bft) S 180 -5,0 C -2,2 C 0,0 km/h (0 Bft)
17.12.2018 00:16 23,2 C -2,2 C -2,2 C 32 % 81 % 1018,9 hPa 0,0 l/m 1,3 km/h (1 Bft) S 180 -5,0 C -2,2 C 2,1 km/h (1 Bft)
17.12.2018 00:14 23,3 C -2,2 C -2,2 C 32 % 81 % 1018,9 hPa 0,0 l/m 1,4 km/h (1 Bft) S-SW 202 -5,0 C -2,2 C 2,1 km/h (1 Bft)
17.12.2018 00:12 23,3 C -2,2 C -2,2 C 32 % 81 % 1018,9 hPa 0,0 l/m 2,3 km/h (1 Bft) SO 135 -5,0 C -2,2 C 2,1 km/h (1 Bft)
17.12.2018 00:10 23,3 C -2,2 C -2,2 C 32 % 81 % 1018,9 hPa 0,0 l/m 2,6 km/h (1 Bft) S-SW 202 -5,0 C -2,2 C 1,9 km/h (1 Bft)
17.12.2018 00:08 23,3 C -2,2 C -2,3 C 32 % 81 % 1018,9 hPa 0,0 l/m 2,9 km/h (1 Bft) S-SW 202 -5,0 C -2,2 C 8,1 km/h (2 Bft)
17.12.2018 00:06 23,3 C -2,2 C -2,3 C 32 % 81 % 1018,9 hPa 0,0 l/m 3,4 km/h (1 Bft) S-SW 202 -5,0 C -2,2 C 4,1 km/h (1 Bft)
17.12.2018 00:04 23,2 C -2,2 C -2,2 C 32 % 81 % 1018,9 hPa 0,0 l/m 3,4 km/h (1 Bft) S 180 -5,0 C -2,2 C 5,8 km/h (2 Bft)
17.12.2018 00:02 23,2 C -2,2 C -2,3 C 32 % 81 % 1018,9 hPa 0,0 l/m 3,4 km/h (1 Bft) O-SO 112 -5,0 C -2,2 C 8,1 km/h (2 Bft)
17.12.2018 00:00 23,4 C -2,2 C -2,2 C 32 % 81 % 1018,9 hPa 0,0 l/m 3,4 km/h (1 Bft) S 180 -5,0 C -2,2 C 4,2 km/h (1 Bft)
_ Min-Zeit 09:06 02:12 01:08 00:00 00:00 01:40 - 02:00 - - 02:12 02:12 00:18
Minimum _ 21,6 C -2,4 C -2,6 C 32 % 81 % 1018,0 hPa - 0,0 km/h (0 Bft) - - -5,2 C -2,4 C 0,0 km/h (0 Bft)
_ Max-Zeit 00:00 10:30 10:36 05:32 08:52 10:00 00:00 00:00 - - 10:30 10:30 00:02
Maximum _ 23,4 C 0,2 C 0,6 C 34 % 85 % 1023,0 hPa 0,0 l/m 3,4 km/h
S (1 Bft)
- - -2,2 C 0,2 C 8,1 km/h
O-SO (2 Bft)
Durchschnitt _ 22,5 C -1,7 C -1,3 C 33 % 83 % 1019,9 hPa #0,0 l/m 0,7 km/h (0 Bft) O-SO - -4,2 C -1,7 C 1,6 km/h (1 Bft)